Regional Weather Roundup
Issued by NWS

Home | Current Version | Previous Version | Text Only | Print | Product List | Glossary On
Versions: 1 2 3 4 5 6 7 8 9 10 11 12 13 14 15 16 17 18 19 20 21 22 23 24 25 26 27 28 29 30 31 32 33 34 35 36 37 38 39 40 41 42 43 44 45 46 47 48 49 50
000
ASUS43 KBIS 210010
RWRND

NORTH DAKOTA REGIONAL WEATHER ROUNDUP
NATIONAL WEATHER SERVICE BISMARCK ND
700 PM CDT SUN APR 20 2014

NOTE: "FAIR" INDICATES FEW OR NO CLOUDS BELOW 12,000 FEET WITH NO
SIGNIFICANT WEATHER AND/OR OBSTRUCTIONS TO VISIBILITY.


NDZ001>003-009>011-017-210100-
NORTHWEST NORTH DAKOTA

CITY           SKY/WX    TMP DP  RH WIND       PRES   REMARKS
WILLISTON      SUNNY     64  28  25 W24G30    29.94R
6HR MIN TEMP:  63; 6HR MAX TEMP:  68;

MINOT          LGT RAIN  66  23  19 W23G32    29.86S
MINOT AFB      PTSUNNY   66  29  24 W26G39    29.85S
$$

NDZ018>021-031>035-040>046-210100-
SOUTHWEST NORTH DAKOTA

CITY           SKY/WX    TMP DP  RH WIND       PRES   REMARKS
BISMARCK       MOSUNNY   69  29  22 NW28G37   29.90R
6HR MIN TEMP:  69; 6HR MAX TEMP:  78;

DICKINSON      SUNNY     65  18  16 W25G39    29.96R
GARRISON         N/A     66  24  20 W24G32    29.91R
6HR MIN TEMP:  65; 6HR MAX TEMP:  73;

HETTINGER ARPT SUNNY     65  22  19 W21G30    29.99R
$$

NDZ004>008-012>016-024-026-027-054-210100-
NORTHEAST NORTH DAKOTA

CITY           SKY/WX    TMP DP  RH WIND       PRES   REMARKS
GRAND FORKS    CLOUDY    68  43  40 SE8       29.84F
GRND FRKS AFB  CLOUDY    69  40  34 S10       29.85F
DEVILS LAKE    CLOUDY    66  32  28 SW12G18   29.80F
$$

NDZ022-023-025-028>030-036>039-047>053-210100-
SOUTHEAST NORTH DAKOTA

CITY           SKY/WX    TMP DP  RH WIND       PRES   REMARKS
FARGO          MOSUNNY   73  31  21 S12       29.88F
6HR MIN TEMP:  67; 6HR MAX TEMP:  76;

JAMESTOWN      CLOUDY    73  30  20 S16       29.85S
$$




USA.gov is the U.S. government's official web portal to all federal, state and local government web resources and services.